Wind_Speed
7 7 7 6 7 7 7 7 7 7 7 8 8 8 8 8 8 7 6 6 5 4 4 4 4 4 4 3 3 3 4 4 5 5 5 5 6 5 5 5 5 5 4 3 3 2 1 1 1
9 9 8 8 7 7 7 7 8 8 8 9 9 8 8 7 7 7 7 6 5 5 4 4 4 4 4 3 3 3 4 4 4 5 5 5 5 5 5 5 5 4 4 4 3 2 2 2 2
11 10 9 9 8 8 8 8 8 8 8 9 9 9 8 8 7 7 6 6 6 5 4 4 4 3 3 3 3 3 3 4 4 5 5 6 6 5 5 5 5 5 4 4 4 3 3 3 3
13 12 11 10 10 9 9 9 8 8 9 9 9 9 8 8 7 7 7 6 6 5 5 4 3 3 2 2 2 2 3 4 4 5 6 6 6 6 5 6 6 6 5 5 4 4 3 3 4
14 13 12 12 11 10 10 10 9 8 8 9 9 9 8 8 8 8 7 7 6 5 5 4 3 2 2 1 1 2 3 4 4 5 6 6 6 6 6 6 6 6 6 6 5 4 4 4 4
15 14 14 13 13 11 10 10 9 9 9 9 9 9 8 8 8 9 8 7 6 5 4 4 3 2 1 1 2 2 3 4 5 5 6 7 7 7 7 7 7 7 6 6 6 5 5 4 4
16 15 15 14 13 12 11 11 11 11 10 9 9 10 10 10 9 9 8 7 6 5 4 4 4 3 2 2 2 2 3 4 5 5 6 7 8 8 8 8 8 7 7 6 6 5 5 4 4
16 16 15 14 14 13 12 12 11 11 11 10 10 10 11 11 10 9 8 7 6 6 5 4 4 3 2 2 2 3 3 3 4 5 6 7 8 9 8 8 8 8 7 7 6 6 5 4 4
17 16 16 15 14 14 13 12 11 11 11 11 12 11 11 11 10 9 8 7 7 6 5 4 3 3 2 2 1 2 3 3 4 5 6 7 8 8 8 8 8 8 8 7 6 6 5 4 3
18 17 17 16 14 14 13 12 11 11 11 11 11 11 10 11 10 9 9 8 7 6 6 5 4 3 2 2 1 2 2 3 4 5 6 7 8 8 8 9 9 8 8 8 7 6 5 4 3
19 18 17 16 15 15 14 13 12 12 11 11 11 11 11 11 10 9 9 8 7 6 5 5 4 3 2 1 1 1 2 3 4 5 6 6 7 8 8 9 9 8 9 8 7 6 5 4 3
19 18 18 17 16 15 15 14 13 12 12 12 12 12 11 11 10 10 9 8 8 6 5 5 4 3 3 1 0 1 2 3 4 5 5 6 7 8 8 9 8 8 9 8 7 6 5 4 3
19 18 18 17 16 16 15 15 13 12 12 12 12 13 12 12 11 10 10 9 8 7 5 5 5 4 3 2 1 2 2 3 4 4 5 6 7 7 8 8 8 8 8 8 7 6 5 5 4
18 18 18 18 18 17 16 15 14 14 13 12 12 13 13 12 11 10 9 8 8 7 6 5 5 4 3 2 1 1 1 2 3 4 4 5 6 7 8 8 8 8 8 8 8 7 6 5 4
18 18 18 19 19 18 17 16 16 14 14 13 13 13 13 12 11 11 9 9 8 8 7 6 5 5 3 2 1 1 1 2 2 3 4 5 7 8 8 8 8 8 9 8 8 7 7 6 6
18 19 19 18 18 18 18 17 17 15 15 14 14 13 13 13 12 11 10 9 8 8 7 6 5 4 3 2 2 1 1 1 2 3 4 5 7 8 8 8 8 8 8 8 8 7 7 7 6
18 18 18 18 18 18 18 17 17 16 16 16 16 14 13 14 13 12 11 9 8 8 7 6 5 4 3 3 3 2 2 2 2 3 4 5 7 7 8 7 8 8 8 8 8 7 7 7 6
16 16 17 18 18 18 18 17 16 16 16 16 16 15 13 13 13 12 11 10 9 8 7 6 5 5 4 3 3 3 3 3 3 3 4 5 6 7 7 7 7 8 8 8 8 8 7 7 7
16 16 16 16 17 17 17 17 16 16 16 16 16 15 14 14 12 12 11 11 10 9 8 7 6 5 4 4 4 4 3 3 3 3 4 5 6 6 7 7 7 7 7 8 8 8 8 8 8
15 16 15 16 15 16 16 16 16 16 16 16 16 15 14 14 12 12 12 11 10 9 8 7 7 6 6 5 4 4 3 3 3 4 4 5 5 6 6 6 6 7 7 7 7 7 7 8 8
15 15 15 15 14 14 15 15 15 16 16 15 15 15 14 14 13 12 12 11 10 10 9 8 8 8 7 5 5 4 4 4 4 4 4 5 5 5 6 6 6 6 6 7 7 7 7 8 8
14 14 15 14 14 14 14 13 14 14 14 13 13 13 14 14 13 13 12 11 10 10 10 9 9 8 8 7 6 5 5 4 5 5 5 5 5 6 6 6 6 6 6 6 7 7 8 8 8
12 13 15 14 14 14 14 13 13 13 12 12 12 13 14 14 13 13 12 11 10 10 11 10 10 9 8 8 7 6 5 5 5 6 6 6 6 6 6 6 7 7 7 7 7 8 9 9 9
12 12 13 13 12 12 13 12 12 12 12 12 13 13 13 14 13 13 12 12 11 11 11 11 10 9 9 8 8 7 7 7 7 6 7 7 7 7 7 7 7 8 8 8 9 9 9 10 9
10 12 12 12 12 12 12 12 11 12 12 12 13 14 14 14 14 13 12 12 12 12 12 11 11 10 9 9 9 9 9 8 8 8 8 8 8 7 8 8 8 8 8 9 9 10 10 10 10
10 11 11 12 11 11 11 11 11 11 11 12 12 13 14 15 15 14 13 12 12 13 12 12 12 12 11 10 10 10 10 10 10 10 10 9 9 9 9 9 9 9 9 9 9 10 10 11 11
10 10 10 10 9 9 10 10 11 11 11 11 12 13 13 14 14 14 14 13 12 13 13 13 13 12 12 12 12 12 12 12 12 11 11 11 10 10 10 10 9 9 10 10 10 11 11 12 12
9 9 10 10 8 9 9 10 10 11 11 11 11 12 12 13 13 14 14 13 13 13 13 14 14 13 13 13 13 13 13 13 13 12 12 12 12 12 11 11 11 11 11 11 11 12 12 13 13
8 8 8 8 8 9 8 9 10 10 10 10 10 11 11 12 12 13 13 13 13 13 13 14 14 14 14 14 14 14 14 14 14 14 14 13 13 13 13 13 12 12 12 12 12 13 13 14 14
7 7 7 7 7 8 9 9 10 10 10 10 11 11 11 11 12 12 12 13 13 13 13 13 14 15 15 15 15 14 14 15 15 15 15 14 14 14 14 14 14 14 14 14 14 14 14 15 15
Wind_Direction
203 199 192 182 177 177 177 176 173 172 173 173 167 162 162 157 158 157 155 148 142 132 126 113 106 97 95 92 81 69 55 47 41 36 31 30 31 29 27 28 27 23 19 14 358 337 335 305 263
209 202 198 192 185 184 180 179 173 173 176 174 170 169 170 169 165 157 157 153 146 142 134 124 117 104 98 94 86 63 49 41 34 29 26 27 24 20 17 15 14 11 3 356 347 327 296 279 261
211 206 202 196 192 187 181 178 175 174 171 171 172 174 174 173 172 160 157 155 152 149 143 133 126 110 101 95 82 63 49 33 28 24 22 22 19 16 11 3 358 354 346 335 323 309 285 268 255
210 207 204 200 197 192 189 185 183 179 173 173 174 175 173 173 173 166 162 157 155 155 150 137 126 127 110 93 75 53 37 20 20 23 22 20 17 13 5 357 349 344 337 330 321 308 282 265 253
210 209 207 204 202 199 195 191 190 188 178 177 178 179 175 173 173 171 171 163 159 159 154 150 142 133 129 94 63 43 33 19 25 28 23 18 15 10 1 355 348 340 337 332 324 310 290 272 255
210 209 208 209 208 205 201 198 198 194 184 183 187 186 181 175 175 175 172 168 167 166 160 156 144 133 121 82 65 41 29 27 28 26 20 16 11 4 358 353 348 341 337 330 321 313 304 281 264
212 209 208 210 211 209 205 201 198 195 191 190 191 189 184 178 174 174 169 166 167 168 162 152 144 135 109 80 77 52 35 32 29 23 18 12 7 4 357 353 352 350 345 338 330 317 304 289 269
210 206 207 209 210 207 205 200 199 198 192 189 188 186 183 178 176 175 170 170 170 167 162 159 152 150 136 101 89 58 30 28 26 20 15 11 9 6 2 359 360 358 353 345 339 333 315 301 278
210 208 207 208 209 206 202 200 199 197 194 193 192 189 185 182 179 179 178 178 175 174 170 169 168 164 153 144 98 44 29 23 19 13 9 8 8 7 7 6 4 1 358 354 345 336 322 308 289
209 209 208 209 208 208 207 204 200 200 198 193 194 191 190 188 186 186 186 183 181 181 183 180 175 161 151 136 85 38 21 15 10 7 6 4 5 8 9 6 5 3 2 359 351 343 337 322 300
208 207 207 207 207 206 209 207 204 201 201 197 197 195 195 194 193 195 192 190 191 192 196 186 180 173 161 147 84 23 15 4 358 2 3 2 4 9 10 9 8 8 7 6 3 357 355 348 331
207 206 207 206 205 205 207 208 203 202 203 200 201 198 195 198 196 194 193 193 196 196 194 193 194 187 185 196 296 353 355 346 349 356 2 6 7 9 11 13 12 11 11 11 11 10 4 1 352
205 205 205 206 204 205 206 205 202 207 206 206 204 198 195 197 196 193 194 196 197 198 198 196 196 197 202 222 267 307 332 350 351 359 1 8 10 11 12 14 15 15 14 14 17 16 12 10 9
204 204 206 206 205 205 203 204 205 208 207 202 200 197 196 197 197 196 198 197 200 203 200 198 197 200 208 231 264 290 330 353 353 355 3 10 10 10 11 12 15 17 17 18 21 23 24 22 22
203 203 205 205 206 206 206 206 207 209 208 202 200 201 201 200 198 199 202 204 205 205 201 200 200 203 215 233 261 272 303 339 347 353 359 5 8 8 8 10 15 19 20 21 25 27 27 28 27
201 201 203 204 207 207 205 206 207 207 204 203 201 202 205 203 202 202 207 209 207 206 203 205 206 207 217 232 251 255 284 316 337 350 355 358 3 6 10 14 17 17 19 20 20 22 21 21 21
199 201 202 205 206 208 205 205 206 207 206 205 202 202 206 207 206 206 208 211 211 208 208 210 214 215 222 233 245 245 265 292 325 342 349 354 359 5 11 13 13 14 16 16 17 18 16 13 12
199 200 201 204 206 209 209 207 208 210 210 209 206 207 208 206 206 206 209 212 211 204 209 216 219 222 226 232 236 239 256 281 310 334 346 351 356 1 5 9 9 11 13 14 15 15 13 11 10
202 202 203 205 206 208 207 208 212 214 216 213 210 210 211 209 210 210 212 215 212 209 213 215 223 229 233 235 238 239 251 272 296 323 337 343 352 357 359 1 3 4 8 9 11 15 17 14 7
197 200 202 205 207 208 207 211 212 215 217 214 212 211 212 211 211 214 216 215 213 214 217 221 226 232 234 235 238 243 255 268 287 308 323 331 341 349 352 355 358 358 359 2 6 9 11 8 6
198 198 200 204 206 208 209 210 210 213 215 213 214 213 213 210 211 215 215 214 217 219 222 229 233 233 230 231 237 247 260 270 282 298 308 317 330 339 345 346 347 349 351 354 356 356 356 356 356
194 192 194 197 203 206 207 208 207 209 212 214 212 211 211 208 211 212 212 217 219 222 227 233 231 230 230 235 242 249 263 278 284 288 297 304 315 323 330 336 336 336 338 341 342 345 347 346 347
189 191 192 195 201 206 209 210 210 210 209 208 209 209 209 207 208 209 212 217 222 226 231 235 231 231 235 240 244 250 263 275 284 287 292 298 307 315 320 326 328 327 330 333 333 336 338 340 339
181 185 190 196 201 205 207 210 211 209 206 208 208 209 209 208 210 210 213 220 228 232 234 234 232 234 239 242 245 252 262 271 279 286 293 298 304 311 314 316 320 322 325 328 329 329 331 333 335
181 183 183 189 198 203 204 209 210 209 212 212 212 212 212 213 213 213 219 228 233 234 233 234 239 243 246 247 250 256 263 271 277 282 288 293 299 304 306 309 313 315 318 322 326 329 329 330 331
179 179 185 191 198 203 207 210 209 209 212 213 216 215 215 217 216 219 225 232 236 237 237 239 244 247 249 251 255 261 265 270 277 281 284 289 295 295 297 301 306 309 312 316 321 325 327 326 325
179 182 186 191 201 209 212 213 214 211 212 214 217 218 219 219 220 223 229 236 240 242 242 243 247 250 252 254 259 264 266 270 275 278 281 285 290 294 294 295 298 302 306 310 314 319 321 322 323
182 183 188 194 200 208 210 216 218 216 217 216 214 214 217 222 225 226 230 238 243 246 246 246 249 253 256 258 260 266 269 270 273 276 279 281 284 288 292 293 292 296 300 304 308 312 315 318 320
189 194 197 200 205 205 211 216 217 215 218 219 217 218 221 222 226 230 233 238 244 247 248 250 253 256 259 261 263 266 269 272 273 275 278 281 281 284 286 290 290 292 295 300 303 305 309 312 315
202 207 207 209 215 218 221 222 222 220 224 224 221 223 225 228 231 233 235 242 246 248 250 254 257 258 259 262 264 265 268 272 274 275 277 278 279 282 284 286 288 289 292 297 298 301 305 308 311
Height
5890 5891 5892 5894 5896 5897 5897 5898 5898 5899 5900 5901 5901 5902 5904 5905 5907 5909 5907 5906 5907 5907 5907 5907 5906 5906 5906 5906 5905 5905 5904 5903 5903 5902 5901 5899 5898 5897 5896 5895 5894 5893 5893 5892 5891 5891 5890 5890 5890
5889 5890 5893 5894 5895 5896 5897 5897 5898 5899 5900 5900 5901 5902 5903 5904 5905 5906 5906 5906 5907 5907 5907 5907 5907 5906 5906 5906 5906 5905 5904 5904 5903 5902 5901 5899 5898 5897 5896 5895 5894 5893 5892 5891 5891 5890 5890 5890 5890
5887 5889 5892 5893 5894 5896 5897 5897 5897 5898 5899 5900 5901 5902 5903 5904 5905 5905 5906 5906 5907 5907 5907 5907 5907 5907 5907 5906 5906 5905 5905 5904 5903 5902 5901 5899 5898 5897 5896 5894 5893 5892 5891 5890 5890 5889 5889 5888 5888
5886 5889 5891 5893 5893 5894 5896 5897 5897 5898 5899 5899 5901 5902 5903 5904 5904 5905 5906 5906 5907 5907 5907 5907 5907 5907 5907 5907 5906 5906 5905 5904 5903 5902 5901 5899 5898 5897 5895 5894 5893 5892 5891 5890 5889 5888 5888 5887 5887
5885 5887 5889 5890 5892 5893 5894 5895 5896 5897 5898 5899 5900 5901 5902 5903 5904 5905 5905 5906 5907 5907 5907 5907 5907 5907 5907 5907 5906 5906 5905 5904 5903 5902 5901 5899 5898 5897 5895 5894 5893 5891 5890 5888 5888 5887 5886 5886 5886
5883 5886 5888 5889 5890 5892 5893 5894 5895 5896 5897 5898 5900 5901 5901 5903 5903 5904 5905 5906 5906 5907 5907 5907 5907 5907 5907 5907 5906 5906 5905 5904 5904 5903 5901 5900 5898 5897 5895 5893 5892 5890 5889 5887 5886 5885 5885 5884 5884
5882 5884 5885 5887 5888 5890 5892 5893 5894 5895 5896 5898 5899 5900 5901 5902 5903 5904 5905 5905 5906 5907 5907 5907 5907 5907 5907 5907 5907 5906 5905 5905 5904 5903 5902 5900 5898 5897 5895 5893 5891 5889 5888 5886 5885 5884 5883 5883 5883
5878 5882 5883 5885 5887 5889 5890 5892 5893 5894 5895 5897 5898 5899 5900 5901 5903 5903 5904 5905 5906 5907 5907 5907 5908 5908 5907 5907 5907 5906 5906 5905 5904 5903 5902 5900 5898 5896 5895 5893 5891 5889 5887 5885 5884 5883 5882 5881 5881
5876 5881 5881 5883 5885 5887 5889 5890 5892 5893 5894 5896 5897 5899 5900 5901 5902 5903 5904 5905 5906 5907 5907 5907 5908 5907 5907 5907 5907 5906 5906 5905 5904 5903 5902 5900 5899 5896 5894 5892 5891 5889 5887 5885 5883 5882 5881 5880 5880
5874 5877 5879 5881 5883 5885 5887 5889 5891 5892 5893 5895 5897 5898 5899 5900 5902 5903 5904 5905 5906 5907 5907 5907 5908 5908 5907 5907 5907 5906 5906 5905 5904 5903 5902 5900 5898 5896 5894 5892 5890 5888 5886 5884 5883 5881 5880 5879 5879
5870 5874 5876 5879 5881 5883 5885 5887 5889 5891 5892 5894 5896 5897 5898 5899 5901 5902 5904 5904 5905 5906 5907 5907 5908 5908 5908 5907 5907 5906 5906 5905 5904 5903 5902 5900 5899 5897 5895 5893 5890 5888 5886 5884 5882 5881 5880 5879 5878
5868 5871 5874 5877 5879 5881 5884 5886 5887 5889 5891 5893 5894 5896 5897 5899 5900 5902 5903 5904 5905 5906 5906 5907 5907 5907 5908 5907 5907 5906 5906 5905 5904 5903 5902 5901 5899 5897 5895 5893 5890 5888 5887 5884 5882 5881 5880 5879 5878
5866 5869 5872 5875 5877 5880 5882 5884 5886 5888 5890 5891 5893 5894 5896 5898 5899 5901 5902 5903 5904 5905 5906 5906 5907 5907 5907 5907 5907 5906 5906 5905 5904 5903 5902 5901 5899 5897 5895 5893 5891 5889 5887 5885 5883 5881 5880 5879 5878
5863 5866 5869 5872 5875 5878 5880 5883 5885 5887 5888 5890 5892 5893 5895 5897 5899 5900 5902 5903 5904 5905 5906 5906 5906 5906 5907 5907 5907 5906 5906 5905 5904 5903 5902 5901 5899 5898 5896 5894 5892 5890 5888 5885 5884 5882 5880 5879 5878
5861 5865 5868 5870 5873 5876 5879 5882 5883 5885 5887 5889 5890 5892 5894 5896 5898 5900 5901 5902 5903 5904 5905 5905 5906 5906 5906 5906 5906 5906 5905 5905 5904 5903 5902 5901 5899 5898 5896 5894 5892 5890 5888 5886 5884 5883 5881 5880 5879
5860 5863 5866 5869 5871 5874 5879 5880 5881 5883 5885 5887 5889 5891 5893 5895 5897 5898 5900 5901 5902 5903 5904 5904 5905 5905 5906 5906 5906 5906 5905 5905 5904 5903 5902 5901 5899 5898 5896 5894 5892 5890 5889 5887 5885 5883 5882 5881 5879
5858 5861 5864 5867 5869 5872 5876 5877 5879 5881 5884 5886 5888 5890 5892 5894 5896 5897 5899 5900 5901 5902 5903 5904 5905 5905 5905 5906 5906 5905 5905 5904 5904 5903 5902 5901 5899 5898 5896 5894 5893 5891 5889 5887 5886 5884 5883 5881 5880
5857 5860 5862 5865 5868 5871 5873 5876 5877 5879 5882 5884 5886 5888 5891 5893 5894 5896 5898 5899 5900 5901 5902 5903 5904 5904 5905 5905 5905 5905 5905 5904 5903 5902 5902 5900 5899 5898 5896 5895 5893 5891 5890 5888 5886 5885 5883 5881 5880
5856 5858 5861 5864 5867 5869 5872 5874 5876 5878 5881 5883 5885 5887 5889 5891 5893 5895 5897 5898 5899 5901 5902 5903 5903 5904 5904 5904 5904 5904 5904 5904 5903 5902 5901 5900 5899 5898 5896 5895 5893 5892 5890 5888 5887 5885 5884 5882 5880
5855 5858 5860 5863 5865 5868 5870 5873 5875 5877 5879 5881 5884 5886 5888 5890 5892 5894 5895 5897 5898 5900 5901 5901 5902 5903 5903 5903 5903 5903 5903 5903 5902 5901 5901 5900 5899 5897 5896 5895 5893 5892 5890 5889 5887 5886 5884 5882 5881
5853 5857 5859 5862 5864 5867 5870 5872 5874 5875 5877 5880 5882 5884 5886 5888 5891 5893 5894 5896 5897 5898 5899 5900 5901 5902 5902 5902 5902 5902 5902 5902 5901 5901 5900 5899 5898 5897 5895 5894 5893 5891 5890 5889 5887 5886 5884 5883 5881
5853 5855 5858 5861 5864 5866 5869 5871 5873 5874 5876 5878 5880 5882 5885 5887 5889 5891 5893 5894 5896 5897 5898 5899 5900 5900 5901 5901 5901 5901 5901 5901 5900 5900 5899 5898 5897 5896 5895 5894 5892 5891 5890 5888 5887 5885 5884 5882 5880
5852 5854 5857 5860 5863 5865 5867 5870 5872 5873 5875 5877 5878 5881 5883 5885 5887 5889 5891 5893 5894 5895 5897 5897 5898 5899 5899 5900 5900 5900 5900 5900 5899 5899 5898 5897 5896 5895 5894 5893 5891 5890 5889 5888 5886 5885 5883 5881 5880
5852 5855 5857 5859 5862 5864 5866 5869 5871 5872 5874 5875 5877 5879 5881 5884 5886 5888 5890 5891 5892 5894 5895 5896 5896 5897 5898 5898 5898 5898 5899 5898 5898 5897 5897 5896 5895 5894 5893 5892 5890 5889 5888 5886 5885 5883 5882 5880 5879
5852 5855 5858 5860 5861 5864 5865 5867 5870 5870 5872 5874 5876 5878 5880 5882 5884 5886 5888 5889 5891 5892 5893 5894 5895 5896 5896 5896 5897 5897 5897 5896 5896 5896 5895 5894 5893 5892 5891 5890 5889 5888 5886 5885 5884 5882 5880 5879 5877
5852 5855 5859 5860 5862 5863 5864 5866 5868 5869 5870 5872 5874 5876 5878 5880 5882 5884 5886 5887 5889 5890 5891 5892 5893 5893 5894 5894 5895 5895 5895 5894 5894 5894 5893 5892 5891 5890 5889 5888 5887 5886 5885 5883 5882 5880 5879 5877 5875
5852 5854 5857 5859 5861 5862 5863 5865 5866 5867 5869 5871 5872 5874 5876 5878 5880 5882 5883 5885 5886 5887 5888 5889 5890 5891 5891 5892 5892 5892 5892 5892 5892 5891 5891 5890 5889 5888 5887 5886 5885 5884 5883 5881 5880 5879 5877 5875 5873
5853 5854 5856 5858 5860 5861 5863 5864 5865 5866 5868 5869 5870 5872 5874 5876 5877 5879 5881 5882 5883 5885 5886 5887 5887 5888 5888 5889 5889 5890 5889 5889 5889 5889 5888 5887 5886 5885 5885 5884 5883 5882 5880 5879 5878 5876 5874 5873 5870
5853 5854 5855 5856 5858 5860 5862 5865 5863 5865 5866 5868 5869 5870 5872 5873 5875 5876 5878 5879 5881 5882 5883 5884 5884 5885 5885 5886 5886 5886 5886 5886 5886 5885 5885 5884 5883 5883 5882 5881 5880 5879 5877 5876 5875 5873 5872 5870 5867
5852 5853 5854 5856 5857 5858 5860 5864 5862 5863 5864 5866 5867 5868 5870 5871 5873 5874 5875 5877 5878 5879 5880 5880 5881 5881 5882 5882 5882 5882 5882 5882 5882 5882 5881 5880 5880 5879 5878 5877 5876 5875 5874 5873 5871 5870 5868 5866 5864